Location: Acton
(51.4942°N, 0.2232°W)
Time: 09:50:54
(UTC+00:00)

Okean 1-7 Rocket - Pass Details

Date: 20 January 2021
Orbit: 615 x 650 km, 82.5° (Epoch: 26 February)

Event Time Altitude Azimuth Distance (km) Brightness Sun altitude
Exits shadow 06:38:28 14° 313° (NW) 1,822 5.4 -11.6°
Maximum altitude 06:40:53 20° 275° (W) 1,491 4.9 -11.2°
Drops below altitude 10° 06:44:09 10° 229° (SW) 2,033 5.9 -10.7°
Sets 06:46:51 0° 212° (SSW) 2,930 6.9 -10.3°
